When you browse on this site, cookies collect data to enhance your experience and personalize the content and advertising you see.
Visit our Privacy Policy to learn more. By continuing to use the site, you agree to this use of cookies and data.
  • In Romania
  • List of Countries
  • For 7 days
  • Water Temperature
  • Satellite Maps
  • Weather Map
  • Weather Widgets
  • user-avatar
    Login

    Hourly Weather Arpajon

    Today, 16 July, Tuesday

    Time Temperature Precipitation Wind Pressure Humidity
    00:00 +15°C° 0 mm 2 mps 756 mmHg 81%
    01:00 +15°C° 0 mm 1 mps 756 mmHg 82%
    02:00 +14°C° 0 mm 1 mps 755 mmHg 83%
    03:00 +14°C° 0 mm 1 mps 755 mmHg 84%
    04:00 +14°C° 0 mm 1 mps 755 mmHg 82%
    05:00 +15°C° 0 mm 1 mps 755 mmHg 79%
    06:00 +16°C° 0 mm 1 mps 756 mmHg 77%
    07:00 +19°C° 0 mm 1 mps 755 mmHg 69%
    08:00 +20°C° 0 mm 1 mps 755 mmHg 61%
    09:00 +22°C° 0 mm 1 mps 755 mmHg 54%
    10:00 +23°C° 0 mm 2 mps 755 mmHg 49%
    11:00 +24°C° 0 mm 2 mps 755 mmHg 43%
    12:00 +26°C° 0 mm 2 mps 755 mmHg 38%
    13:00 +26°C° 0 mm 2 mps 755 mmHg 36%
    14:00 +27°C° 0 mm 2 mps 754 mmHg 34%
    15:00 +28°C° 0 mm 2 mps 754 mmHg 32%
    16:00 +27°C° 0 mm 2 mps 754 mmHg 37%
    17:00 +26°C° 0 mm 2 mps 754 mmHg 41%
    18:00 +26°C° 0 mm 2 mps 754 mmHg 45%
    19:00 +24°C° 0 mm 2 mps 754 mmHg 51%
    20:00 +21°C° 0 mm 2 mps 754 mmHg 57%
    21:00 +19°C° 0 mm 2 mps 754 mmHg 63%
    22:00 +18°C° 0 mm 2 mps 754 mmHg 67%
    23:00 +18°C° 0 mm 2 mps 754 mmHg 71%

    Tomorrow, 17 July, Wednesday

    Time Temperature Precipitation Wind Pressure Humidity
    00:00 +18°C° 0 mm 1 mps 754 mmHg 75%
    01:00 +16°C° 0 mm 1 mps 753 mmHg 77%
    02:00 +16°C° 0 mm 1 mps 753 mmHg 78%
    03:00 +16°C° 0 mm 1 mps 753 mmHg 80%
    04:00 +16°C° 0 mm 1 mps 753 mmHg 78%
    05:00 +18°C° 0 mm 1 mps 753 mmHg 75%
    06:00 +19°C° 0 mm 1 mps 753 mmHg 72%
    07:00 +21°C° 0 mm 1 mps 753 mmHg 64%
    08:00 +23°C° 0 mm 1 mps 753 mmHg 56%
    09:00 +25°C° 0 mm 1 mps 753 mmHg 49%
    10:00 +26°C° 0 mm 1 mps 753 mmHg 45%
    11:00 +28°C° 0 mm 2 mps 753 mmHg 41%
    12:00 +29°C° 0 mm 2 mps 752 mmHg 37%
    13:00 +29°C° 0 mm 2 mps 752 mmHg 36%
    14:00 +29°C° 0 mm 2 mps 752 mmHg 35%
    15:00 +29°C° 0 mm 3 mps 752 mmHg 34%
    16:00 +28°C° 0 mm 2 mps 751 mmHg 38%
    17:00 +28°C° 0 mm 2 mps 751 mmHg 42%
    18:00 +27°C° 0 mm 2 mps 751 mmHg 46%
    19:00 +25°C° 0 mm 2 mps 751 mmHg 50%
    20:00 +24°C° 0 mm 3 mps 751 mmHg 55%
    21:00 +21°C° 0 mm 3 mps 751 mmHg 60%
    22:00 +20°C° 0 mm 3 mps 751 mmHg 63%
    23:00 +19°C° 0 mm 2 mps 751 mmHg 67%

    Day after tomorrow, 18 July, Thursday

    Time Temperature Precipitation Wind Pressure Humidity
    00:00 +19°C° 0 mm 2 mps 751 mmHg 70%
    01:00 +18°C° 0 mm 2 mps 751 mmHg 71%
    02:00 +17°C° 0 mm 2 mps 751 mmHg 72%
    03:00 +18°C° 0 mm 1 mps 751 mmHg 73%
    04:00 +18°C° 0 mm 1 mps 751 mmHg 71%
    05:00 +19°C° 0 mm 1 mps 751 mmHg 68%
    06:00 +19°C° 0 mm 1 mps 751 mmHg 66%
    07:00 +19°C° 0 mm 2 mps 751 mmHg 61%
    08:00 +21°C° 0 mm 2 mps 751 mmHg 56%
    09:00 +24°C° 0 mm 2 mps 751 mmHg 50%
    10:00 +25°C° 0 mm 3 mps 751 mmHg 48%
    11:00 +26°C° 0 mm 3 mps 751 mmHg 46%
    12:00 +27°C° 0 mm 4 mps 750 mmHg 43%
    13:00 +28°C° 0 mm 4 mps 750 mmHg 42%
    14:00 +28°C° 0 mm 5 mps 750 mmHg 41%
    15:00 +28°C° 0 mm 5 mps 750 mmHg 40%
    16:00 +27°C° 0 mm 5 mps 750 mmHg 43%
    17:00 +25°C° 0 mm 4 mps 750 mmHg 47%
    18:00 +23°C° 0 mm 4 mps 750 mmHg 51%
    19:00 +22°C° 0 mm 3 mps 750 mmHg 58%
    20:00 +21°C° 0 mm 3 mps 751 mmHg 65%
    21:00 +20°C° 0 mm 3 mps 751 mmHg 71%
    22:00 +19°C° 0 mm 3 mps 751 mmHg 76%
    23:00 +18°C° 0 mm 2 mps 751 mmHg 81%

    19 July, Friday

    Time Temperature Precipitation Wind Pressure Humidity
    00:00 +17°C° 0 mm 2 mps 751 mmHg 85%
    01:00 +17°C° 0 mm 2 mps 751 mmHg 84%
    02:00 +17°C° 0 mm 2 mps 752 mmHg 84%
    03:00 +16°C° 0 mm 2 mps 752 mmHg 83%
    04:00 +17°C° 0 mm 2 mps 752 mmHg 80%
    05:00 +18°C° 0 mm 1 mps 752 mmHg 78%
    06:00 +18°C° 0 mm 1 mps 752 mmHg 76%
    07:00 +19°C° 0 mm 2 mps 752 mmHg 69%
    08:00 +20°C° 0 mm 2 mps 753 mmHg 61%
    09:00 +23°C° 0 mm 2 mps 753 mmHg 54%
    10:00 +23°C° 0 mm 2 mps 753 mmHg 52%
    11:00 +24°C° 0 mm 3 mps 752 mmHg 49%
    12:00 +25°C° 0 mm 3 mps 752 mmHg 47%
    13:00 +26°C° 0 mm 3 mps 752 mmHg 45%
    14:00 +26°C° 0 mm 3 mps 751 mmHg 44%
    15:00 +27°C° 0 mm 3 mps 751 mmHg 42%
    16:00 +26°C° 0 mm 3 mps 751 mmHg 43%
    17:00 +26°C° 0 mm 3 mps 751 mmHg 44%
    18:00 +26°C° 0 mm 2 mps 751 mmHg 45%
    19:00 +24°C° 0 mm 2 mps 751 mmHg 51%
    20:00 +23°C° 0 mm 2 mps 751 mmHg 57%
    21:00 +20°C° 0 mm 2 mps 751 mmHg 62%
    22:00 +19°C° 0 mm 2 mps 751 mmHg 64%
    23:00 +19°C° 0 mm 2 mps 751 mmHg 66%

    20 July, Saturday

    Time Temperature Precipitation Wind Pressure Humidity
    00:00 +18°C° 0 mm 2 mps 750 mmHg 68%
    01:00 +18°C° 0 mm 2 mps 750 mmHg 71%
    02:00 +17°C° 0 mm 2 mps 750 mmHg 73%
    03:00 +17°C° 0 mm 2 mps 750 mmHg 76%
    04:00 +17°C° 0 mm 2 mps 750 mmHg 75%
    05:00 +18°C° 0 mm 2 mps 750 mmHg 74%
    06:00 +19°C° 0 mm 2 mps 750 mmHg 73%
    07:00 +20°C° 0.2 mm 3 mps 750 mmHg 70%
    08:00 +21°C° 0.2 mm 3 mps 750 mmHg 68%
    09:00 +22°C° 0.2 mm 3 mps 750 mmHg 66%
    10:00 +25°C° 0.1 mm 4 mps 750 mmHg 60%
    11:00 +26°C° 0.1 mm 4 mps 750 mmHg 54%
    12:00 +27°C° 0.1 mm 4 mps 750 mmHg 48%
    13:00 +27°C° 1.4 mm 4 mps 750 mmHg 51%
    14:00 +27°C° 1.4 mm 4 mps 750 mmHg 54%
    15:00 +27°C° 1.4 mm 4 mps 750 mmHg 57%
    16:00 +26°C° 0.5 mm 4 mps 750 mmHg 59%
    17:00 +26°C° 0.5 mm 4 mps 750 mmHg 61%
    18:00 +26°C° 0.5 mm 4 mps 751 mmHg 63%
    19:00 +24°C° 0.5 mm 3 mps 751 mmHg 69%
    20:00 +21°C° 0.5 mm 3 mps 752 mmHg 76%
    21:00 +20°C° 0.5 mm 2 mps 752 mmHg 82%
    22:00 +19°C° 0 mm 2 mps 753 mmHg 83%
    23:00 +19°C° 0 mm 3 mps 753 mmHg 84%

    21 July, Sunday

    Time Temperature Precipitation Wind Pressure Humidity
    00:00 +18°C° 0 mm 3 mps 754 mmHg 86%
    01:00 +17°C° 0 mm 3 mps 754 mmHg 84%
    02:00 +16°C° 0 mm 2 mps 754 mmHg 83%
    03:00 +15°C° 0 mm 2 mps 754 mmHg 82%
    04:00 +16°C° 0 mm 2 mps 755 mmHg 81%
    05:00 +16°C° 0 mm 2 mps 755 mmHg 81%
    06:00 +16°C° 0 mm 2 mps 756 mmHg 80%
    07:00 +18°C° 0 mm 2 mps 756 mmHg 72%
    08:00 +20°C° 0 mm 2 mps 757 mmHg 63%
    09:00 +23°C° 0 mm 2 mps 757 mmHg 55%
    10:00 +24°C° 0 mm 2 mps 757 mmHg 49%
    11:00 +26°C° 0 mm 2 mps 757 mmHg 44%
    12:00 +27°C° 0 mm 2 mps 757 mmHg 39%
    13:00 +27°C° 0 mm 2 mps 757 mmHg 38%
    14:00 +28°C° 0 mm 2 mps 757 mmHg 37%
    15:00 +29°C° 0 mm 3 mps 757 mmHg 36%
    16:00 +28°C° 0 mm 3 mps 757 mmHg 39%
    17:00 +27°C° 0 mm 3 mps 757 mmHg 42%
    18:00 +27°C° 0 mm 3 mps 758 mmHg 45%
    19:00 +25°C° 0 mm 3 mps 758 mmHg 51%
    20:00 +22°C° 0 mm 3 mps 758 mmHg 56%
    21:00 +20°C° 0 mm 3 mps 758 mmHg 61%
    22:00 +20°C° 0 mm 3 mps 758 mmHg 63%
    23:00 +19°C° 0 mm 3 mps 758 mmHg 65%
    Show more